[[{"header":{"parameterUnit":"m.s-1","parameterCategory":1,"la1":30.2991,"la2":30.254,"lo1":-89.0895,"lo2":-89.0444,"dy":0.0017,"dx":0.0017,"nx":28,"ny":28,"refTime":"2023-11-10T09:00:00:Z","depth":0,"parameterNumber":2,"parameterNumberName":"U-component_of_WINDS"},"data":[0,0,0,0,0,0,0,0,0,0,0,0,0,0,0,0,0,0,0,0,0,0,0,0,0,0,0,0,0,0,0,0,0,0,0,0,0,0,0,0,0,0,0,0,0,0,0,0,0,0,0,0,0,0,0,0,0,0,-2.1816,-2.1819,0,-2.2122,-2.2125,-2.2129,-2.219,-2.2188,-2.2186,-2.2183,-2.2501,-2.2511,-2.2522,0,0,0,0,0,0,0,0,0,0,0,0,0,-2.1289,-2.1298,-2.1815,-2.1819,-2.1823,-2.2121,-2.2126,-2.213,-2.2191,-2.2188,-2.2185,-2.2182,-2.2497,-2.251,-2.2523,0,0,0,0,0,0,0,0,0,0,0,0,0,-2.1549,-2.1301,-2.1815,-2.1889,-2.1899,-2.212,-2.2126,-2.2131,-2.2191,-2.2188,-2.2184,-2.2181,-2.2493,-2.2509,-2.2525,-2.2694,0,0,-2.2573,-2.258,0,0,0,0,0,0,0,0,-2.1534,-2.1568,-2.1875,-2.1885,-2.1896,-2.2114,-2.2056,-2.232,-2.2192,-2.2081,-2.2183,-2.2179,-2.2375,-2.2401,-2.2466,-2.2709,-2.2723,-2.2575,-2.2584,-2.2591,-2.2596,0,0,0,0,0,0,0,-2.1516,-2.1555,-2.1937,-2.1879,-2.1892,-2.191,-2.1943,-2.2107,-2.2244,-2.209,-2.2095,-2.213,-2.2381,-2.2451,-2.2474,-2.2727,-2.2574,-2.2589,-2.2598,-2.2605,-2.313,-2.3134,0,0,0,0,0,0,-2.1484,-2.154,-2.1927,-2.1946,-2.1702,-2.1922,-2.1959,-2.2048,-2.2243,-2.2269,-2.2133,-2.2132,-2.2425,-2.2455,-2.2485,-2.27,-2.2591,-2.2606,-2.2615,-2.3125,-2.3131,-2.3135,0,0,0,0,0,0,-2.1472,-2.1518,-2.1915,-2.1745,-2.1796,-2.1935,-2.2034,-2.2056,-2.2126,-2.2275,-2.23,-2.2179,-2.2423,-2.2463,-2.2643,-2.2712,-2.2613,-2.2628,-2.312,-2.3127,-2.3133,-2.3129,0,0,0,0,0,0,-2.1457,-2.1513,-2.1578,-2.1745,-2.1805,-2.2065,-2.2038,-2.2064,-2.2153,-2.2154,-2.2325,-2.235,-2.2424,-2.2618,-2.2659,-2.2732,-2.264,-2.3115,-2.3123,-2.3131,-2.3123,-2.3134,-2.3144,0,0,0,0,0,-2.1438,-2.1564,-2.158,-2.1627,-2.1888,-2.2068,-2.2103,-2.2184,-2.2158,-2.2225,-2.2322,-2.2344,-2.2697,-2.2636,-2.2682,-2.2761,-2.3111,-2.3121,-2.313,-2.3119,-2.3132,-2.3143,0,0,0,0,0,0,-2.1401,-2.1587,-2.1608,-2.1791,-2.1914,-2.2078,-2.2165,-2.2195,-2.2328,-2.2324,-2.2421,-2.2459,-2.2634,-2.2716,-2.2644,-2.2938,-2.2903,-2.2922,-2.2878,-2.2893,-2.2902,-2.288,-2.2654,0,0,0,0,0,-2.1414,-2.1544,-2.17,-2.1847,-2.1907,-2.2026,-2.2107,-2.216,-2.2291,-2.2343,-2.2453,-2.258,-2.2721,-2.2811,-2.2948,-2.3135,-2.3175,-2.3213,-2.3223,-2.323,-2.3247,-2.3356,-2.3375,-2.3168,-2.3168,-2.3167,0,0,-2.1443,-2.156,-2.1636,-2.1843,-2.1943,-2.2078,-2.2069,-2.221,-2.2312,-2.2365,-2.2542,-2.2627,-2.2776,-2.2961,-2.3048,-2.3035,-2.3313,-2.3243,-2.3248,-2.326,-2.3368,-2.3387,-2.3405,-2.3174,-2.3173,-2.3172,0,0,-2.1564,-2.1664,-2.18,-2.1902,-2.2055,-2.2133,-2.2166,-2.2327,-2.2386,-2.2565,-2.2609,-2.2732,-2.297,-2.3076,-2.316,-2.3325,-2.3353,-2.3367,-2.3421,-2.3526,-2.3543,-2.3558,-2.362,-2.364,-2.3382,-2.3382,-2.3382,0,-2.158,-2.1783,-2.1866,-2.2007,-2.2098,-2.2152,-2.2292,-2.2387,-2.2577,-2.264,-2.2621,-2.2924,-2.3028,-2.3241,-2.3281,-2.3347,-2.339,-2.3349,-2.3533,-2.3549,-2.3565,-2.3625,-2.3647,-2.3383,-2.3383,-2.3383,-2.3383,0,-2.1798,-2.1937,-2.2029,-2.2211,-2.2313,-2.2452,-2.2558,-2.2651,-2.2696,-2.2777,-2.296,-2.3087,-2.3253,-2.3307,-2.3351,-2.3527,-2.3514,-2.3513,-2.348,-2.3584,-2.3642,-2.3666,-2.3385,-2.3384,-2.3384,-2.3384,0,0,-2.1903,-2.2131,-2.2164,-2.2249,-2.2423,-2.2534,-2.2678,-2.2839,-2.2918,-2.3048,-2.3173,-2.3375,-2.3377,-2.3473,-2.353,-2.3622,-2.3749,-2.3611,-2.3616,-2.3634,-2.3955,-2.3956,-2.3981,-2.3767,-2.3772,-2.3776,-2.3943,0,-2.2047,-2.2303,-2.2384,-2.2599,-2.2732,-2.2786,-2.2912,-2.3034,-2.3114,-2.324,-2.333,-2.3473,-2.3462,-2.3521,-2.3614,-2.3713,-2.3815,-2.3702,-2.3887,-2.3893,-2.385,-2.4011,-2.4012,-2.4164,-2.3966,-2.397,-2.3973,0,-2.2249,-2.2383,-2.2611,-2.2772,-2.2831,-2.2942,-2.3098,-2.3217,-2.3358,-2.341,-2.3519,-2.357,-2.3725,-2.3681,-2.3898,-2.382,-2.3901,-2.3961,-2.3969,-2.3991,-2.394,-2.404,-2.4214,-2.4237,-2.4009,-2.4006,-2.4004,0,-2.2306,-2.2544,-2.2712,-2.2783,-2.2974,-2.3052,-2.3135,-2.3272,-2.3365,-2.3503,-2.3565,-2.3718,-2.3803,-2.3921,-2.4013,-2.3973,-2.4223,-2.4187,-2.4274,-2.4271,-2.4325,-2.432,-2.4516,-2.4373,-2.4372,-2.4372,-2.4372,0,-2.246,-2.2598,-2.2741,-2.2845,-2.3003,-2.3095,-2.3249,-2.3336,-2.3458,-2.3582,-2.3639,-2.3754,-2.3867,-2.3998,-2.4071,-2.4241,-2.4278,-2.4327,-2.4345,-2.4323,-2.4317,-2.4379,-2.4371,-2.4378,-2.4377,-2.4376,-2.4375,0,-2.2551,-2.2651,-2.2839,-2.3006,-2.3051,-2.316,-2.3304,-2.3408,-2.3491,-2.3647,-2.3689,-2.3821,-2.3978,-2.4081,-2.4282,-2.4331,-2.4518,-2.4532,-2.447,-2.4479,-2.4561,-2.4553,-2.4805,-2.4845,-2.4672,-2.4673,-2.4675,0,-2.2643,-2.2751,-2.2929,-2.3016,-2.31,-2.3238,-2.3334,-2.343,-2.3528,-2.3699,-2.3783,-2.3944,-2.4078,-2.4328,-2.4443,-2.4598,-2.4618,-2.4695,-2.4641,-2.4617,-2.4622,-2.4615,-2.4628,-2.4704,-2.4706,-2.4707,-2.4708,0,-2.2796,-2.2842,-2.2977,-2.3131,-2.3243,-2.3369,-2.3496,-2.3564,-2.3682,-2.379,-2.3951,-2.4055,-2.4262,-2.4422,-2.4588,-2.4677,-2.4714,-2.4724,-2.4753,-2.4732,-2.4693,-2.4718,-2.4497,-2.4718,-2.4717,-2.4716,-2.4716,-2.4715,-2.2893,-2.2993,-2.3135,-2.3285,-2.339,-2.3507,-2.3615,-2.3712,-2.3848,-2.4023,-2.4072,-2.4241,-2.4384,-2.4611,-2.4702,-2.4838,-2.4829,-2.487,-2.4881,-2.489,-2.4892,-2.467,-2.4868,-2.4868,-2.4868,-2.4868,-2.4868,0,-2.3052,-2.3146,-2.3283,-2.3459,-2.3577,-2.3601,-2.3743,-2.3841,-2.3989,-2.4118,-2.4249,-2.4437,-2.4594,-2.4722,-2.4884,-2.4969,-2.499,-2.5008,-2.5004,-2.5025,-2.4889,-2.485,-2.4989,-2.4989,-2.4989,-2.4989,-2.4989,-2.4989,-2.3148,-2.332,-2.3383,-2.3608,-2.3703,-2.3869,-2.3948,-2.4058,-2.4162,-2.4369,-2.4499,-2.4581,-2.4712,-2.4884,-2.5031,-2.5064,-2.5123,-2.5138,-2.5176,-2.5047,-2.5034,-2.5021,-2.4984,-2.5149,-2.5149,-2.53,-2.5302,-2.5303]},{"header":{"parameterUnit":"m.s-1","parameterCategory":1,"la1":30.2991,"la2":30.254,"lo1":-89.0895,"lo2":-89.0444,"dy":0.0017,"dx":0.0017,"nx":28,"ny":28,"refTime":"2023-11-10T09:00:00:Z","depth":0,"parameterNumber":3,"parameterNumberName":"V-component_of_WINDS"},"data":[0,0,0,0,0,0,0,0,0,0,0,0,0,0,0,0,0,0,0,0,0,0,0,0,0,0,0,0,0,0,0,0,0,0,0,0,0,0,0,0,0,0,0,0,0,0,0,0,0,0,0,0,0,0,0,0,0,0,-4.5747,-4.5744,0,-4.5486,-4.5483,-4.548,-4.5328,-4.5327,-4.5327,-4.5326,-4.5042,-4.5035,-4.5028,0,0,0,0,0,0,0,0,0,0,0,0,0,-4.6096,-4.609,-4.5747,-4.5744,-4.5741,-4.5486,-4.5483,-4.5479,-4.5328,-4.5327,-4.5327,-4.5326,-4.5044,-4.5036,-4.5027,0,0,0,0,0,0,0,0,0,0,0,0,0,-4.59,-4.6089,-4.5748,-4.5635,-4.5622,-4.5487,-4.5482,-4.5478,-4.5328,-4.5327,-4.5326,-4.5326,-4.5047,-4.5036,-4.5026,-4.4977,0,0,-4.4994,-4.4989,0,0,0,0,0,0,0,0,-4.5912,-4.5887,-4.5655,-4.5643,-4.5628,-4.5439,-4.5501,-4.5309,-4.5328,-4.5439,-4.5326,-4.5325,-4.5173,-4.5152,-4.5104,-4.4964,-4.4952,-4.4993,-4.4986,-4.4982,-4.4979,0,0,0,0,0,0,0,-4.5925,-4.5898,-4.5643,-4.5651,-4.5635,-4.5591,-4.5562,-4.5464,-4.5313,-4.543,-4.5418,-4.539,-4.5166,-4.5115,-4.5097,-4.4947,-4.4993,-4.4983,-4.4977,-4.4973,-4.4747,-4.4747,0,0,0,0,0,0,-4.5959,-4.591,-4.5651,-4.5635,-4.5771,-4.5586,-4.5553,-4.55,-4.5314,-4.5286,-4.5391,-4.5384,-4.5134,-4.5109,-4.5086,-4.5014,-4.4982,-4.4972,-4.4966,-4.4747,-4.4747,-4.4748,0,0,0,0,0,0,-4.5967,-4.5938,-4.5662,-4.5769,-4.5731,-4.5581,-4.5522,-4.5495,-4.5445,-4.5286,-4.5256,-4.5368,-4.5132,-4.5101,-4.5005,-4.5002,-4.4967,-4.4957,-4.4746,-4.4747,-4.4747,-4.4871,0,0,0,0,0,0,-4.5978,-4.5942,-4.5927,-4.5771,-4.5726,-4.5592,-4.5522,-4.5491,-4.5429,-4.5417,-4.5256,-4.5229,-4.5129,-4.5022,-4.4995,-4.4987,-4.4949,-4.4746,-4.4747,-4.4747,-4.4867,-4.4876,-4.4884,0,0,0,0,0,-4.5991,-4.5969,-4.5927,-4.5896,-4.5705,-4.5592,-4.5566,-4.5457,-4.543,-4.541,-4.5306,-4.5234,-4.5007,-4.5014,-4.4982,-4.497,-4.4745,-4.4746,-4.4747,-4.4863,-4.4874,-4.4884,0,0,0,0,0,0,-4.6123,-4.5947,-4.5898,-4.5826,-4.5726,-4.5567,-4.5539,-4.5473,-4.5374,-4.5367,-4.5229,-4.5194,-4.5111,-4.503,-4.5041,-4.491,-4.4868,-4.4862,-4.4967,-4.4976,-4.4984,-4.5005,-4.494,0,0,0,0,0,-4.6145,-4.6074,-4.5921,-4.5872,-4.5825,-4.5691,-4.5638,-4.5562,-4.5451,-4.5406,-4.5296,-4.5186,-4.5088,-4.5028,-4.493,-4.4854,-4.4813,-4.483,-4.4838,-4.4846,-4.4842,-4.4791,-4.4795,-4.475,-4.475,-4.475,0,0,-4.6187,-4.6081,-4.6044,-4.5895,-4.5809,-4.5733,-4.5656,-4.5579,-4.5519,-4.5392,-4.5297,-4.5212,-4.5078,-4.4992,-4.4948,-4.4922,-4.4846,-4.4847,-4.4855,-4.4846,-4.4793,-4.4797,-4.4801,-4.4751,-4.4751,-4.4751,0,0,-4.6225,-4.614,-4.6089,-4.6004,-4.5877,-4.5787,-4.5775,-4.5626,-4.5566,-4.5469,-4.5371,-4.5294,-4.5131,-4.504,-4.4972,-4.4972,-4.4899,-4.4943,-4.4987,-4.4939,-4.4943,-4.4945,-4.4942,-4.4943,-4.494,-4.4941,-4.4941,0,-4.6291,-4.6179,-4.6069,-4.5998,-4.5933,-4.5819,-4.5762,-4.5683,-4.5528,-4.5483,-4.5457,-4.5249,-4.5151,-4.504,-4.504,-4.499,-4.4966,-4.4961,-4.4953,-4.4954,-4.4954,-4.4949,-4.4949,-4.4947,-4.4946,-4.4945,-4.4945,0,-4.6266,-4.6189,-4.6161,-4.602,-4.5951,-4.5888,-4.5761,-4.5704,-4.5633,-4.5545,-4.5443,-4.5322,-4.5197,-4.5165,-4.5093,-4.5041,-4.5029,-4.498,-4.4934,-4.4967,-4.4959,-4.4957,-4.4955,-4.4953,-4.4951,-4.495,0,0,-4.638,-4.6179,-4.6171,-4.6104,-4.5953,-4.5887,-4.5815,-4.5698,-4.5649,-4.5544,-4.5477,-4.5341,-4.5294,-4.5217,-4.5133,-4.5092,-4.5095,-4.5046,-4.5041,-4.5057,-4.5024,-4.5062,-4.5062,-4.5046,-4.5045,-4.5045,-4.5035,0,-4.6395,-4.6268,-4.6165,-4.6073,-4.5997,-4.5887,-4.5823,-4.572,-4.5634,-4.5551,-4.5453,-4.5359,-4.5306,-4.5258,-4.5212,-4.5105,-4.5086,-4.5104,-4.4976,-4.4973,-4.5012,-4.5058,-4.5098,-4.5095,-4.5031,-4.5031,-4.503,0,-4.6395,-4.6301,-4.6204,-4.6058,-4.6022,-4.5968,-4.585,-4.5775,-4.5652,-4.5592,-4.5506,-4.542,-4.5331,-4.5295,-4.5167,-4.5182,-4.5122,-4.5061,-4.5058,-4.504,-4.5003,-4.504,-4.5091,-4.509,-4.5025,-4.5026,-4.5026,0,-4.6486,-4.6333,-4.6254,-4.62,-4.6029,-4.5993,-4.5919,-4.5797,-4.5731,-4.5625,-4.558,-4.5464,-4.5399,-4.5307,-4.5189,-4.5174,-4.5072,-4.5026,-4.5014,-4.5017,-4.4997,-4.5,-4.5038,-4.4962,-4.4962,-4.4962,-4.4962,0,-4.6512,-4.6456,-4.6293,-4.6244,-4.6176,-4.6054,-4.5988,-4.5903,-4.5794,-4.5722,-4.5616,-4.5549,-4.5398,-4.531,-4.5216,-4.5122,-4.5094,-4.5038,-4.5013,-4.5047,-4.5054,-4.5005,-4.5001,-4.4962,-4.4962,-4.4962,-4.4962,0,-4.6602,-4.6491,-4.6398,-4.6244,-4.6204,-4.616,-4.6025,-4.5969,-4.5878,-4.5787,-4.5758,-4.5611,-4.5502,-4.5376,-4.5224,-4.516,-4.5072,-4.5037,-4.5116,-4.5101,-4.5096,-4.5097,-4.5102,-4.5094,-4.5028,-4.5029,-4.5029,0,-4.6626,-4.6581,-4.6424,-4.6371,-4.6302,-4.6217,-4.6151,-4.6027,-4.5961,-4.5817,-4.5777,-4.5662,-4.5563,-4.5392,-4.5267,-4.5149,-4.5108,-4.5118,-4.5089,-4.5123,-4.5105,-4.5109,-4.5101,-4.5126,-4.5127,-4.5128,-4.5129,0,-4.6679,-4.6626,-4.6538,-4.6431,-4.6356,-4.6263,-4.6165,-4.6126,-4.5981,-4.591,-4.5801,-4.5725,-4.5571,-4.5455,-4.5321,-4.5235,-4.5156,-4.514,-4.513,-4.5163,-4.521,-4.5181,-4.5135,-4.514,-4.5139,-4.5138,-4.5137,-4.5137,-4.6734,-4.6688,-4.657,-4.6474,-4.6389,-4.63,-4.624,-4.6142,-4.605,-4.592,-4.585,-4.5741,-4.5612,-4.5425,-4.5343,-4.525,-4.5223,-4.521,-4.5206,-4.5204,-4.5213,-4.5227,-4.5225,-4.5224,-4.5224,-4.5224,-4.5223,0,-4.6779,-4.6698,-4.6612,-4.6481,-4.6404,-4.6342,-4.6229,-4.6167,-4.6075,-4.5966,-4.5871,-4.5742,-4.5628,-4.5495,-4.5371,-4.5322,-4.5281,-4.5293,-4.5294,-4.5274,-4.5245,-4.5265,-4.5327,-4.5327,-4.5327,-4.5327,-4.5327,-4.5327,-4.6794,-4.6712,-4.6645,-4.6516,-4.6432,-4.633,-4.627,-4.6184,-4.6097,-4.596,-4.5867,-4.5783,-4.5661,-4.5527,-4.5417,-4.538,-4.5337,-4.5359,-4.5311,-4.5286,-4.5277,-4.5269,-4.5287,-4.5352,-4.5352,-4.5347,-4.5347,-4.5347]}]]